星链-35002 (STARLINK-35002)

导读 | 豆包AI

STARLINK-35002是美国于2025年8月22日发射的星链卫星,隶属于SpaceX公司的星链星座项目。星链计划旨在构建全球卫星互联网星座,为全球多地提供高速低延迟宽带网络服务。该卫星入轨后,将进一步扩充星链星座规模,提升星座的全球覆盖能力与服务稳定性,推动全球互联网络基础设施建设。

Basic Information
目录编号:
65291
目录名称:
STARLINK-35002
国际标识:
2025-184U
轨道中心:
EARTH
卫星名称:
星链-35002
卫星全名:
星链-35002 (STARLINK-35002)
卫星状态:
在轨 (已飞行250 天)
发射日期:
2025-08-22 UTC
国别 :
美国 (US)
星等 :
--
Orbit Information
数据来源 国际轨道数据 AOE轨道数据
星历时间 2026-04-29T10:45:27+0800
7小时前
查看轨道信息
2026-04-22T19:00:00+0800
6天前
查看轨道信息
半长轴 6927.632km 6927.661km
偏心率 0.0001943 0.0002584
轨道倾角 97.558° 97.590°
近地点辐角 120.468° 118.071°
升交点赤经 172.263° 165.732°
平近点角 239.674° 183.935°
近地点 548.148km 547.733km
远地点 550.842km 551.315km
周期 95.639分钟 95.640分钟
每日圈数 15.056554 15.05646
Detailed Information
固有亮度:
5
最大亮度:
2.5
卫星平台:
Starlink V1.0
覆盖范围:
全球
运营商:
太空探索技术公司
运营商所在国:
美国
制造商(研发单位):
太空探索技术公司
制造商所在国:
美国
使用方式:
暂无
Satellite Introduction
Starlink 计划是 SpaceX 推出的全球卫星互联网项目,通过发射低轨道卫星,为全球尤其是偏远地区提供高速、低延迟的互联网服务。自 2019 年起,Starlink 已部署数千颗卫星,旨在缩小全球数字鸿沟,推动互联网普及。该项目还为军事、航空等行业提供通信支持,带来广泛经济效益。
2D Orbit Map
3D Orbit Map
Orbit Altitude Analysis Chart
Orbit Inclination Analysis Chart
Orbit Comprehensive Analysis Chart
View Comprehensive Chart